Regional Weather Roundup
Issued by NWS

Home | Current Version | Previous Version | Text Only | Print | Product List | Glossary On
Versions: 1 2 3 4 5 6 7 8 9 10 11 12 13 14 15 16 17 18 19 20 21 22 23 24 25 26 27 28 29 30 31 32 33 34 35 36 37 38 39 40 41 42 43 44 45 46 47 48 49 50
000
ASUS44 KBMX 231410
RWRAL

ALABAMA REGIONAL WEATHER ROUNDUP
NATIONAL WEATHER SERVICE BIRMINGHAM AL
900 AM CDT TUE SEP 23 2014

NOTE: "FAIR" INDICATES FEW OR NO CLOUDS BELOW 12,000 FEET
WITH NO SIGNIFICANT WEATHER AND/OR OBSTRUCTIONS TO VISIBILITY.

THE REMARK "TC" DENOTES TEMPERATURE IN DEGREES CELSIUS.

ALZ001>011-014-016>018-020-231500-
NORTH ALABAMA

CITY           SKY/WX    TMP DP  RH WIND       PRES   REMARKS
MUSCLE SHOALS  SUNNY     60  49  66 VRB3      30.24S
HUNTSVILLE     MOSUNNY   63  50  62 NE6       30.23R
DECATUR        SUNNY     62  49  62 NE7       30.24R
HALEYVILLE     FAIR      61  50  67 NE8       30.24R
GADSDEN        SUNNY     64  52  63 E9        30.22R
$$

ALZ012-013-022-023-030>036-040>044-231500-
WEST CENTRAL ALABAMA

CITY           SKY/WX    TMP DP  RH WIND       PRES   REMARKS
TUSCALOOSA     SUNNY     66  53  63 NE7       30.18R
$$

ALZ015-024>027-033>036-040>044-231500-
CENTRAL ALABAMA

CITY           SKY/WX    TMP DP  RH WIND       PRES   REMARKS
BIRMINGHAM     MOSUNNY   67  53  61 VRB7      30.21R
MONTGOMERY     MOSUNNY   68  59  73 E16G22    30.17R
SHELBY CO ARPT SUNNY     65  54  67 VRB5      30.19R
MAXWELL AFB    MOSUNNY   67  58  74 NE10      30.17R
GREENVILLE     CLOUDY    63  59  87 NE9G16    30.14R
$$

ALZ019-021-028-029-037-038-045>048-231500-
EAST CENTRAL ALABAMA

CITY           SKY/WX    TMP DP  RH WIND       PRES   REMARKS
ANNISTON       SUNNY     65  55  70 E5        30.21R
ALEXANDER CITY SUNNY     69  59  72 E7        30.18S
AUBURN         SUNNY     64  55  72 NE13G20   30.21R
$$

ALZ051>064-231500-
SOUTHWEST ALABAMA

CITY           SKY/WX    TMP DP  RH WIND       PRES   REMARKS
MOBILE         SUNNY     66  56  70 NE9       30.11S
BROOKLEY FIELD SUNNY     69  58  67 N7        30.11S
EVERGREEN      PTSUNNY   63  58  83 E7        30.14R
$$

ALZ049-050-065>069-231500-
SOUTHEAST ALABAMA

CITY           SKY/WX    TMP DP  RH WIND       PRES   REMARKS
DOTHAN         CLOUDY    67  63  87 NE12      30.16R
OZARK          CLOUDY    67  62  83 NE14      30.13R HAZE
TROY           CLOUDY    65  60  84 NE12G20   30.15R
EUFAULA        PTSUNNY   68  62  81 NE7       30.14R
$$



USA.gov is the U.S. government's official web portal to all federal, state and local government web resources and services.